{"data":{"norad_id":58161,"epoch":"2026-05-25T04:46:35.061024Z","epoch_age_seconds":47955,"freshness":"FRESH","line1":"1 58161U 23166M   26145.19901691  .00005516  00000+0  19820-3 0  9992","line2":"2 58161  53.1609 224.1839 0001057 113.7056 246.4056 15.30205785144891","mean_motion":15.30205785,"eccentricity":0.0001057,"inclination_deg":53.1609,"raan_deg":224.1839,"arg_perigee_deg":113.7056,"mean_anomaly_deg":246.4056,"bstar":0.0001982,"rev_number":14489,"period_min":94.104989937677,"perigee_km":474.47339901851,"apogee_km":475.92219399449,"semimajor_km":6853.3347965065,"source":"CELESTRAK","updated_at":"2026-05-25T13:38:18.538862Z"}}